Location: Cheadle
(51.0146°N, 113.5417°W)
Time: 11:44:15
(UTC+00:00)

O/OREOS (USA 219) - Visible Passes

Search period start: 30 November 2023 00:00
Search period end: 10 December 2023 00:00
Orbit: 621 x 646 km, 72.0° (Epoch: 22 May)

Date Brightness Start Highest point End Pass type
(mag) Time Alt. Az. Time Alt. Az. Time Alt. Az.
04 Dec ? 14:16:08 10° NNE 14:16:47 10° NNE 14:17:25 10° NE visible
05 Dec ? 14:36:42 10° N 14:39:28 16° NE 14:42:15 10° ENE visible
07 Dec ? 13:42:28 10° NNE 13:43:41 11° NNE 13:44:54 10° NE visible
08 Dec ? 14:03:23 10° N 14:06:21 17° NE 14:09:18 10° E visible
09 Dec ? 14:24:57 10° N 14:28:50 27° NE 14:32:42 10° ESE visible
